Location: Noverd
(38.0910°N, 121.6877°W)
Time: 02:13:59
(UTC+00:00)

Meteor 2-8 Rocket - Pass Details

Date: 13 February 2026
Orbit: 936 x 958 km, 82.5° (Epoch: 13 March)

Event Time Altitude Azimuth Distance (km) Brightness Sun altitude
Exits shadow 12:51:28 49° 217° (SW) 1,210 4.7 -25.7°
Maximum altitude 12:53:03 68° 279° (W) 1,024 4.3 -25.3°
Drops below altitude 10° 12:59:12 10° 2° (N) 2,695 6.8 -24.1°
Sets 13:01:44 0° 5° (N) 3,645 7.6 -23.6°
